"read_dt","SO2 (ppb)","flags","PMT voltage (V)","lamp voltage (V)","lamp intensity (Hz)","internal temp (C)","react chamber temp (C)","sample flow (l/min)","pres (mmHg)","SO2 bkg (ppb)","SO2 coefficient"
2016-05-18 00:00:00,1865E-3,5C000400,-0724,0833,12168,027.1,045.4,0.256,758.8,01.16,0.508
2016-05-18 00:01:00,1910E-3,5C000400,-0724,0834,12176,027.1,045.4,0.257,758.9,01.16,0.508
2016-05-18 00:02:00,1926E-3,5C000400,-0724,0833,12102,027.1,045.4,0.257,758.9,01.16,0.508
2016-05-18 00:03:00,1754E-3,5C000400,-0724,0833,12116,027.1,045.4,0.256,758.9,01.16,0.508
2016-05-18 00:04:00,1810E-3,5C000400,-0724,0833,12218,027.1,045.4,0.257,758.9,01.16,0.508
2016-05-18 00:05:00,1938E-3,5C000400,-0724,0833,12026,027.1,045.4,0.257,758.9,01.16,0.508
2016-05-18 00:06:00,1872E-3,5C000400,-0724,0834,12203,027.1,045.4,0.256,758.8,01.16,0.508
2016-05-18 00:07:00,1901E-3,5C000400,-0724,0833,12126,027.1,045.4,0.257,758.8,01.16,0.508
2016-05-18 00:08:00,1933E-3,5C000400,-0724,0834,12113,027.1,045.4,0.257,758.8,01.16,0.508
2016-05-18 00:09:00,1955E-3,5C000400,-0724,0833,12158,027.1,045.4,0.257,758.8,01.16,0.508
2016-05-18 00:10:00,1832E-3,5C000400,-0724,0834,12261,027.2,045.4,0.257,758.8,01.16,0.508
2016-05-18 00:11:00,1916E-3,5C000400,-0724,0834,12148,027.2,045.4,0.257,758.8,01.16,0.508
2016-05-18 00:12:00,1788E-3,5C000400,-0724,0833,12242,027.2,045.4,0.256,758.8,01.16,0.508
2016-05-18 00:13:00,1783E-3,5C000400,-0724,0834,12255,027.2,045.4,0.256,758.8,01.16,0.508
2016-05-18 00:14:00,1890E-3,5C000400,-0724,0833,12045,027.2,045.4,0.257,758.9,01.16,0.508
2016-05-18 00:15:00,1872E-3,5C000400,-0724,0834,12165,027.2,045.4,0.256,758.9,01.16,0.508
2016-05-18 00:16:00,1831E-3,5C000400,-0724,0834,12087,027.2,045.4,0.256,758.8,01.16,0.508
2016-05-18 00:17:00,1949E-3,5C000400,-0724,0834,12143,027.2,045.4,0.256,758.9,01.16,0.508
2016-05-18 00:18:00,1868E-3,5C000400,-0724,0833,12164,027.2,045.4,0.256,758.7,01.16,0.508
2016-05-18 00:19:00,1827E-3,5C000400,-0724,0834,12134,027.2,045.4,0.256,758.8,01.16,0.508
2016-05-18 00:20:00,1976E-3,5C000400,-0724,0833,12163,027.2,045.4,0.256,758.9,01.16,0.508
2016-05-18 00:21:00,1776E-3,5C000400,-0724,0834,12062,027.2,045.4,0.256,758.8,01.16,0.508
2016-05-18 00:22:00,1791E-3,5C000400,-0724,0833,12115,027.2,045.4,0.256,758.8,01.16,0.508
2016-05-18 00:23:00,1919E-3,5C000400,-0724,0833,11942,027.3,045.4,0.256,758.8,01.16,0.508
2016-05-18 00:24:00,1871E-3,5C000400,-0724,0834,11986,027.3,045.4,0.256,758.8,01.16,0.508
2016-05-18 00:25:00,1888E-3,5C000400,-0724,0833,12132,027.3,045.4,0.257,758.8,01.16,0.508
2016-05-18 00:26:00,1906E-3,5C000400,-0724,0834,12168,027.3,045.4,0.256,758.8,01.16,0.508
2016-05-18 00:27:00,1798E-3,5C000400,-0724,0833,12204,027.3,045.4,0.256,758.8,01.16,0.508
2016-05-18 00:28:00,1880E-3,5C000400,-0724,0833,12139,027.3,045.4,0.256,758.8,01.16,0.508
2016-05-18 00:29:00,1860E-3,5C000400,-0724,0834,12152,027.3,045.4,0.256,758.7,01.16,0.508
2016-05-18 00:30:00,1851E-3,5C000400,-0724,0833,12229,027.3,045.4,0.256,758.7,01.16,0.508
2016-05-18 00:31:00,1829E-3,5C000400,-0724,0833,12137,027.3,045.4,0.256,758.7,01.16,0.508
2016-05-18 00:32:00,1956E-3,5C000400,-0724,0833,12176,027.3,045.4,0.256,758.7,01.16,0.508
2016-05-18 00:33:00,1906E-3,5C000400,-0724,0833,12091,027.3,045.4,0.256,758.7,01.16,0.508
2016-05-18 00:34:00,1844E-3,5C000400,-0724,0834,12293,027.3,045.4,0.256,758.7,01.16,0.508
2016-05-18 00:35:00,1825E-3,5C000400,-0724,0834,12283,027.3,045.4,0.257,758.7,01.16,0.508
2016-05-18 00:36:00,2023E-3,5C000400,-0724,0834,12257,027.3,045.4,0.256,758.7,01.16,0.508
2016-05-18 00:37:00,1943E-3,5C000400,-0724,0834,12053,027.3,045.4,0.256,758.7,01.16,0.508
2016-05-18 00:38:00,1787E-3,5C000400,-0724,0833,12090,027.3,045.4,0.256,758.7,01.16,0.508
2016-05-18 00:39:00,1965E-3,5C000400,-0724,0834,12121,027.3,045.4,0.256,758.7,01.16,0.508
2016-05-18 00:40:00,1859E-3,5C000400,-0724,0834,12227,027.3,045.4,0.256,758.7,01.16,0.508
2016-05-18 00:41:00,1940E-3,5C000400,-0724,0833,12151,027.3,045.4,0.256,758.6,01.16,0.508
2016-05-18 00:42:00,1925E-3,5C000400,-0724,0833,12106,027.3,045.4,0.256,758.6,01.16,0.508
2016-05-18 00:43:00,1816E-3,5C000400,-0724,0834,12110,027.3,045.4,0.256,758.6,01.16,0.508
2016-05-18 00:44:00,2024E-3,5C000400,-0724,0834,12242,027.4,045.4,0.256,758.6,01.16,0.508
2016-05-18 00:45:00,1820E-3,5C000400,-0724,0833,12128,027.4,045.4,0.256,758.6,01.16,0.508
2016-05-18 00:46:00,1829E-3,5C000400,-0724,0833,12236,027.4,045.4,0.256,758.5,01.16,0.508
2016-05-18 00:47:00,1778E-3,5C000400,-0724,0833,11924,027.4,045.4,0.256,758.6,01.16,0.508
2016-05-18 00:48:00,1881E-3,5C000400,-0724,0834,12296,027.4,045.4,0.256,758.5,01.16,0.508
2016-05-18 00:49:00,1885E-3,5C000400,-0724,0833,12005,027.4,045.4,0.256,758.4,01.16,0.508
2016-05-18 00:50:00,1863E-3,5C000400,-0724,0833,12250,027.4,045.4,0.256,758.5,01.16,0.508
2016-05-18 00:51:00,1851E-3,5C000400,-0724,0832,12169,027.4,045.4,0.256,758.5,01.16,0.508
2016-05-18 00:52:00,1819E-3,5C000400,-0724,0833,12192,027.4,045.4,0.256,758.5,01.16,0.508
2016-05-18 00:53:00,1879E-3,5C000400,-0724,0833,12119,027.4,045.4,0.256,758.5,01.16,0.508
2016-05-18 00:54:00,2075E-3,5C000400,-0724,0833,12212,027.4,045.4,0.256,758.5,01.16,0.508
2016-05-18 00:55:00,1845E-3,5C000400,-0724,0833,12034,027.4,045.4,0.256,758.6,01.16,0.508
2016-05-18 00:56:00,1763E-3,5C000400,-0724,0833,12047,027.4,045.4,0.256,758.6,01.16,0.508
2016-05-18 00:57:00,1909E-3,5C000400,-0724,0834,12140,027.4,045.4,0.256,758.5,01.16,0.508
2016-05-18 00:58:00,1724E-3,5C000400,-0724,0833,12072,027.4,045.4,0.256,758.6,01.16,0.508
2016-05-18 00:59:00,1783E-3,5C000400,-0724,0834,12189,027.4,045.4,0.256,758.5,01.16,0.508
2016-05-18 01:00:00,1895E-3,5C000400,-0724,0833,12243,027.4,045.4,0.256,758.6,01.16,0.508
2016-05-18 01:01:00,1965E-3,5C000400,-0724,0833,12107,027.4,045.4,0.256,758.6,01.16,0.508
2016-05-18 01:02:00,1870E-3,5C000400,-0724,0834,12097,027.4,045.4,0.256,758.6,01.16,0.508
2016-05-18 01:03:00,1865E-3,5C000400,-0724,0834,12056,027.4,045.4,0.256,758.6,01.16,0.508
2016-05-18 01:04:00,1994E-3,5C000400,-0724,0834,12150,027.4,045.4,0.256,758.6,01.16,0.508
2016-05-18 01:05:00,1983E-3,5C000400,-0724,0833,12191,027.5,045.4,0.256,758.6,01.16,0.508
2016-05-18 01:06:00,1931E-3,5C000400,-0724,0833,12155,027.4,045.4,0.256,758.6,01.16,0.508
2016-05-18 01:07:00,1933E-3,5C000400,-0724,0833,12129,027.5,045.4,0.256,758.6,01.16,0.508
2016-05-18 01:08:00,1856E-3,5C000400,-0724,0833,12231,027.4,045.4,0.256,758.5,01.16,0.508
2016-05-18 01:09:00,1845E-3,5C000400,-0724,0833,12118,027.4,045.4,0.256,758.5,01.16,0.508
2016-05-18 01:10:00,1733E-3,5C000400,-0724,0834,12128,027.4,045.4,0.256,758.4,01.16,0.508
2016-05-18 01:11:00,1918E-3,5C000400,-0724,0833,12190,027.5,045.4,0.255,758.6,01.16,0.508
2016-05-18 01:12:00,1873E-3,5C000400,-0724,0834,12185,027.5,045.4,0.256,758.6,01.16,0.508
2016-05-18 01:13:00,1921E-3,5C000400,-0724,0834,12219,027.5,045.4,0.256,758.6,01.16,0.508
2016-05-18 01:14:00,1919E-3,5C000400,-0724,0833,12206,027.5,045.4,0.256,758.6,01.16,0.508
2016-05-18 01:15:00,1890E-3,5C000400,-0724,0833,12122,027.5,045.4,0.256,758.5,01.16,0.508
2016-05-18 01:16:00,1851E-3,5C000400,-0724,0833,11950,027.5,045.4,0.256,758.5,01.16,0.508
2016-05-18 01:17:00,1874E-3,5C000400,-0724,0833,12197,027.5,045.4,0.256,758.4,01.16,0.508
2016-05-18 01:18:00,1848E-3,5C000400,-0724,0834,12196,027.5,045.4,0.256,758.5,01.16,0.508
2016-05-18 01:19:00,1868E-3,5C000400,-0724,0833,12136,027.5,045.4,0.256,758.6,01.16,0.508
2016-05-18 01:20:00,1931E-3,5C000400,-0724,0835,12050,027.5,045.4,0.256,758.5,01.16,0.508
2016-05-18 01:21:00,2001E-3,5C000400,-0724,0832,12073,027.5,045.4,0.256,758.6,01.16,0.508
2016-05-18 01:22:00,1709E-3,5C000400,-0724,0834,12042,027.5,045.4,0.256,758.5,01.16,0.508
2016-05-18 01:23:00,2083E-3,5C000400,-0724,0833,12063,027.5,045.4,0.256,758.5,01.16,0.508
2016-05-18 01:24:00,1937E-3,5C000400,-0724,0834,12240,027.5,045.4,0.256,758.5,01.16,0.508
2016-05-18 01:25:00,1833E-3,5C000400,-0724,0834,12160,027.5,045.4,0.256,758.6,01.16,0.508
2016-05-18 01:26:00,1838E-3,5C000400,-0724,0834,12237,027.5,045.4,0.256,758.5,01.16,0.508
2016-05-18 01:27:00,1809E-3,5C000400,-0724,0834,12112,027.5,045.4,0.255,758.5,01.16,0.508
2016-05-18 01:28:00,1838E-3,5C000400,-0724,0833,12032,027.5,045.4,0.256,758.6,01.16,0.508
2016-05-18 01:29:00,1886E-3,5C000400,-0724,0834,12000,027.5,045.4,0.256,758.6,01.16,0.508
2016-05-18 01:30:00,1919E-3,5C000400,-0724,0833,12099,027.5,045.4,0.255,758.6,01.16,0.508
2016-05-18 01:31:00,1825E-3,5C000400,-0724,0833,12277,027.5,045.4,0.256,758.6,01.16,0.508
2016-05-18 01:32:00,1941E-3,5C000400,-0724,0834,12051,027.5,045.4,0.256,758.6,01.16,0.508
2016-05-18 01:33:00,1756E-3,5C000400,-0724,0833,12084,027.6,045.4,0.255,758.6,01.16,0.508
2016-05-18 01:34:00,1841E-3,5C000400,-0724,0833,12217,027.5,045.4,0.256,758.6,01.16,0.508
2016-05-18 01:35:00,1970E-3,5C000400,-0724,0834,12248,027.5,045.4,0.256,758.6,01.16,0.508
2016-05-18 01:36:00,1736E-3,5C000400,-0724,0833,12271,027.5,045.4,0.255,758.6,01.16,0.508
2016-05-18 01:37:00,1857E-3,5C000400,-0724,0833,12206,027.6,045.4,0.256,758.6,01.16,0.508
2016-05-18 01:38:00,1969E-3,5C000400,-0724,0835,12164,027.6,045.4,0.256,758.7,01.16,0.508
2016-05-18 01:39:00,1926E-3,5C000400,-0724,0833,12188,027.6,045.4,0.255,758.7,01.16,0.508
2016-05-18 01:40:00,1781E-3,5C000400,-0724,0833,12140,027.6,045.4,0.256,758.8,01.16,0.508
2016-05-18 01:41:00,1981E-3,5C000400,-0724,0833,12206,027.6,045.4,0.256,758.8,01.16,0.508
2016-05-18 01:42:00,1899E-3,5C000400,-0724,0834,12162,027.6,045.4,0.255,758.8,01.16,0.508
2016-05-18 01:43:00,1987E-3,5C000400,-0724,0833,12228,027.6,045.4,0.256,758.9,01.16,0.508
2016-05-18 01:44:00,1773E-3,5C000400,-0724,0834,12255,027.6,045.4,0.256,758.8,01.16,0.508
2016-05-18 01:45:00,1970E-3,5C000400,-0724,0833,12093,027.6,045.4,0.256,758.8,01.16,0.508
2016-05-18 01:46:00,1946E-3,5C000400,-0724,0833,12252,027.6,045.4,0.256,758.7,01.16,0.508
2016-05-18 01:47:00,1881E-3,5C000400,-0724,0834,12260,027.6,045.4,0.256,758.9,01.16,0.508
2016-05-18 01:48:00,1826E-3,5C000400,-0724,0834,12169,027.7,045.4,0.256,758.9,01.16,0.508
2016-05-18 01:49:00,1921E-3,5C000400,-0724,0833,12192,027.6,045.4,0.255,758.9,01.16,0.508
2016-05-18 01:50:00,1921E-3,5C000400,-0724,0834,12060,027.6,045.4,0.256,758.9,01.16,0.508
2016-05-18 01:51:00,1878E-3,5C000400,-0724,0833,12100,027.7,045.4,0.256,758.9,01.16,0.508
2016-05-18 01:52:00,1832E-3,5C000400,-0724,0834,12223,027.7,045.4,0.256,758.9,01.16,0.508
2016-05-18 01:53:00,1888E-3,5C000400,-0724,0833,12051,027.7,045.4,0.255,758.9,01.16,0.508
2016-05-18 01:54:00,1754E-3,5C000400,-0724,0834,12013,027.7,045.4,0.256,758.9,01.16,0.508
2016-05-18 01:55:00,1915E-3,5C000400,-0724,0833,12073,027.7,045.4,0.256,758.9,01.16,0.508
2016-05-18 01:56:00,1850E-3,5C000400,-0724,0834,12184,027.7,045.4,0.255,758.9,01.16,0.508
2016-05-18 01:57:00,1879E-3,5C000400,-0724,0834,12156,027.7,045.4,0.256,758.9,01.16,0.508
2016-05-18 01:58:00,1810E-3,5C000400,-0724,0834,12309,027.7,045.4,0.256,759.0,01.16,0.508
2016-05-18 01:59:00,1890E-3,5C000400,-0724,0834,12055,027.7,045.4,0.256,758.9,01.16,0.508
2016-05-18 02:00:00,1876E-3,5C000400,-0724,0834,12190,027.7,045.4,0.255,758.9,01.16,0.508
2016-05-18 02:01:00,2021E-3,5C000400,-0724,0833,12177,027.7,045.4,0.256,758.9,01.16,0.508
2016-05-18 02:02:00,2017E-3,5C000400,-0724,0833,12217,027.7,045.4,0.256,758.9,01.16,0.508
2016-05-18 02:03:00,1898E-3,5C000400,-0724,0834,12300,027.7,045.4,0.255,759.0,01.16,0.508
2016-05-18 02:04:00,1822E-3,5C000400,-0724,0834,12176,027.7,045.4,0.255,758.8,01.16,0.508
2016-05-18 02:05:00,1852E-3,5C000400,-0724,0833,12176,027.8,045.4,0.256,758.7,01.16,0.508
2016-05-18 02:06:00,1750E-3,5C000400,-0724,0834,12230,027.8,045.4,0.255,758.8,01.16,0.508
2016-05-18 02:07:00,1963E-3,5C000400,-0724,0834,12099,027.8,045.4,0.255,758.7,01.16,0.508
2016-05-18 02:08:00,1765E-3,5C000400,-0724,0834,12156,027.8,045.4,0.256,758.7,01.16,0.508
2016-05-18 02:09:00,1904E-3,5C000400,-0724,0834,12093,027.8,045.4,0.256,758.7,01.16,0.508
2016-05-18 02:10:00,1868E-3,5C000400,-0724,0834,12195,027.8,045.4,0.255,758.8,01.16,0.508
2016-05-18 02:11:00,1867E-3,5C000400,-0724,0833,12037,027.8,045.4,0.255,758.8,01.16,0.508
2016-05-18 02:12:00,1882E-3,5C000400,-0724,0833,12089,027.8,045.4,0.255,759.0,01.16,0.508
2016-05-18 02:13:00,1825E-3,5C000400,-0724,0834,12245,027.8,045.4,0.255,759.0,01.16,0.508
2016-05-18 02:14:00,1942E-3,5C000400,-0724,0834,12149,027.8,045.4,0.255,759.1,01.16,0.508
2016-05-18 02:15:00,1933E-3,5C000400,-0724,0833,12193,027.8,045.4,0.256,759.0,01.16,0.508
2016-05-18 02:16:00,1887E-3,5C000400,-0724,0834,12071,027.8,045.4,0.255,759.1,01.16,0.508
2016-05-18 02:17:00,1806E-3,5C000400,-0724,0834,12150,027.9,045.4,0.255,759.1,01.16,0.508
2016-05-18 02:18:00,1894E-3,5C000400,-0724,0833,12035,027.8,045.4,0.255,759.1,01.16,0.508
2016-05-18 02:19:00,1971E-3,5C000400,-0724,0833,12083,027.9,045.4,0.255,759.0,01.16,0.508
2016-05-18 02:20:00,1919E-3,5C000400,-0724,0833,12120,027.9,045.4,0.255,759.1,01.16,0.508
2016-05-18 02:21:00,1889E-3,5C000400,-0724,0834,12156,027.9,045.4,0.255,759.1,01.16,0.508
2016-05-18 02:22:00,1955E-3,5C000400,-0724,0834,12103,027.9,045.4,0.255,759.1,01.16,0.508
2016-05-18 02:23:00,1888E-3,5C000400,-0724,0833,12019,027.9,045.4,0.255,759.1,01.16,0.508
2016-05-18 02:24:00,1927E-3,5C000400,-0724,0834,12159,027.9,045.4,0.255,759.1,01.16,0.508
2016-05-18 02:25:00,1862E-3,5C000400,-0724,0834,12158,027.9,045.4,0.255,759.1,01.16,0.508
2016-05-18 02:26:00,1783E-3,5C000400,-0724,0834,12153,027.9,045.4,0.255,759.1,01.16,0.508
2016-05-18 02:27:00,1766E-3,5C000400,-0724,0833,12190,027.9,045.4,0.255,759.0,01.16,0.508
2016-05-18 02:28:00,1884E-3,5C000400,-0724,0833,12172,027.9,045.4,0.255,759.0,01.16,0.508
2016-05-18 02:29:00,1848E-3,5C000400,-0724,0834,12121,028.0,045.4,0.255,759.0,01.16,0.508
2016-05-18 02:30:00,1970E-3,5C000400,-0724,0834,12162,027.9,045.4,0.255,759.0,01.16,0.508
2016-05-18 02:31:00,1962E-3,5C000400,-0724,0834,12137,028.0,045.4,0.255,759.0,01.16,0.508
2016-05-18 02:32:00,1853E-3,5C000400,-0724,0834,12045,028.0,045.4,0.255,758.9,01.16,0.508
2016-05-18 02:33:00,1836E-3,5C000400,-0724,0833,12136,028.0,045.4,0.255,758.9,01.16,0.508
2016-05-18 02:34:00,1945E-3,5C000400,-0724,0834,12168,028.0,045.4,0.255,758.9,01.16,0.508
2016-05-18 02:35:00,1849E-3,5C000400,-0724,0833,12101,028.0,045.4,0.255,759.0,01.16,0.508
2016-05-18 02:36:00,1819E-3,5C000400,-0724,0833,12103,028.0,045.4,0.255,758.9,01.16,0.508
2016-05-18 02:37:00,1980E-3,5C000400,-0724,0833,12110,028.0,045.4,0.255,759.0,01.16,0.508
2016-05-18 02:38:00,1866E-3,5C000400,-0724,0833,12031,028.0,045.4,0.255,759.0,01.16,0.508
2016-05-18 02:39:00,1811E-3,5C000400,-0724,0833,12180,028.0,045.4,0.255,759.1,01.16,0.508
2016-05-18 02:40:00,1838E-3,5C000400,-0724,0833,12195,028.0,045.4,0.255,759.0,01.16,0.508
2016-05-18 02:41:00,1773E-3,5C000400,-0724,0833,12199,028.1,045.4,0.255,759.2,01.16,0.508
2016-05-18 02:42:00,1887E-3,5C000400,-0724,0833,12196,028.0,045.4,0.255,759.1,01.16,0.508
2016-05-18 02:43:00,1853E-3,5C000400,-0724,0834,12152,028.1,045.4,0.255,759.2,01.16,0.508
2016-05-18 02:44:00,1872E-3,5C000400,-0724,0834,12104,028.1,045.4,0.255,759.2,01.16,0.508
2016-05-18 02:45:00,1869E-3,5C000400,-0724,0834,12184,028.1,045.4,0.255,759.2,01.16,0.508
2016-05-18 02:46:00,1830E-3,5C000400,-0724,0834,12148,028.1,045.4,0.255,759.2,01.16,0.508
2016-05-18 02:47:00,1853E-3,5C000400,-0724,0834,12160,028.1,045.4,0.255,759.2,01.16,0.508
2016-05-18 02:48:00,1983E-3,5C000400,-0724,0833,11958,028.1,045.4,0.255,759.1,01.16,0.508
2016-05-18 02:49:00,1838E-3,5C000400,-0724,0834,12058,028.1,045.4,0.254,759.1,01.16,0.508
2016-05-18 02:50:00,1933E-3,5C000400,-0724,0834,12218,028.1,045.4,0.255,759.1,01.16,0.508
2016-05-18 02:51:00,1795E-3,5C000400,-0724,0833,12198,028.1,045.4,0.255,759.1,01.16,0.508
2016-05-18 02:52:00,1833E-3,5C000400,-0724,0833,12050,028.1,045.4,0.255,759.1,01.16,0.508
2016-05-18 02:53:00,1823E-3,5C000400,-0724,0834,12102,028.1,045.4,0.254,759.0,01.16,0.508
2016-05-18 02:54:00,1812E-3,5C000400,-0724,0833,12162,028.1,045.4,0.255,758.9,01.16,0.508
2016-05-18 02:55:00,1788E-3,5C000400,-0724,0834,12201,028.1,045.4,0.255,759.0,01.16,0.508
2016-05-18 02:56:00,1857E-3,5C000400,-0724,0834,12250,028.1,045.4,0.255,758.9,01.16,0.508
2016-05-18 02:57:00,1916E-3,5C000400,-0724,0834,12078,028.2,045.4,0.254,758.8,01.16,0.508
2016-05-18 02:58:00,1848E-3,5C000400,-0724,0834,12086,028.2,045.4,0.255,759.0,01.16,0.508
2016-05-18 02:59:00,1838E-3,5C000400,-0724,0833,12182,028.2,045.4,0.255,759.0,01.16,0.508
2016-05-18 03:00:00,1800E-3,5C000400,-0724,0834,12207,028.2,045.4,0.255,759.1,01.16,0.508
2016-05-18 03:01:00,1886E-3,5C000400,-0724,0834,12181,028.2,045.4,0.255,759.1,01.16,0.508
2016-05-18 03:02:00,1790E-3,5C000400,-0724,0833,12224,028.2,045.4,0.255,759.1,01.16,0.508
2016-05-18 03:03:00,1791E-3,5C000400,-0724,0833,12175,028.2,045.4,0.255,759.1,01.16,0.508
2016-05-18 03:04:00,1838E-3,5C000400,-0724,0833,12031,028.2,045.4,0.254,759.1,01.16,0.508
2016-05-18 03:05:00,1744E-3,5C000400,-0724,0834,12237,028.2,045.4,0.255,759.1,01.16,0.508
2016-05-18 03:06:00,1837E-3,5C000400,-0724,0834,12127,028.2,045.4,0.255,759.2,01.16,0.508
2016-05-18 03:07:00,1817E-3,5C000400,-0724,0834,12156,028.2,045.4,0.255,759.2,01.16,0.508
2016-05-18 03:08:00,1930E-3,5C000400,-0724,0833,12225,028.2,045.5,0.255,759.0,01.16,0.508
2016-05-18 03:09:00,1976E-3,5C000400,-0724,0834,12154,028.3,045.5,0.255,759.0,01.16,0.508
2016-05-18 03:10:00,1957E-3,5C000400,-0724,0833,12314,028.3,045.5,0.255,759.1,01.16,0.508
2016-05-18 03:11:00,1769E-3,5C000400,-0724,0833,12040,028.3,045.4,0.255,759.1,01.16,0.508
2016-05-18 03:12:00,1876E-3,5C000400,-0724,0834,12113,028.3,045.4,0.255,759.2,01.16,0.508
2016-05-18 03:13:00,2013E-3,5C000400,-0724,0833,12212,028.3,045.4,0.255,759.1,01.16,0.508
2016-05-18 03:14:00,1849E-3,5C000400,-0724,0834,12219,028.3,045.4,0.254,759.0,01.16,0.508
2016-05-18 03:15:00,1874E-3,5C000400,-0724,0833,12178,028.3,045.4,0.255,759.1,01.16,0.508
2016-05-18 03:16:00,1979E-3,5C000400,-0724,0834,12081,028.3,045.4,0.255,759.2,01.16,0.508
2016-05-18 03:17:00,1780E-3,5C000400,-0724,0833,12182,028.3,045.4,0.254,759.1,01.16,0.508
2016-05-18 03:18:00,1901E-3,5C000400,-0724,0834,12123,028.3,045.4,0.254,759.1,01.16,0.508
2016-05-18 03:19:00,1907E-3,5C000400,-0724,0833,12097,028.3,045.4,0.254,759.0,01.16,0.508
2016-05-18 03:20:00,1875E-3,5C000400,-0724,0834,12129,028.3,045.4,0.255,759.2,01.16,0.508
2016-05-18 03:21:00,1892E-3,5C000400,-0724,0834,12152,028.3,045.4,0.254,759.2,01.16,0.508
2016-05-18 03:22:00,1791E-3,5C000400,-0724,0834,12021,028.4,045.4,0.254,759.2,01.16,0.508
2016-05-18 03:23:00,1942E-3,5C000400,-0724,0833,12148,028.4,045.4,0.255,759.2,01.16,0.508
2016-05-18 03:24:00,2014E-3,5C000400,-0724,0834,12183,028.4,045.4,0.255,759.2,01.16,0.508
2016-05-18 03:25:00,2070E-3,5C000400,-0724,0834,12212,028.4,045.4,0.254,759.2,01.16,0.508
2016-05-18 03:26:00,1860E-3,5C000400,-0724,0833,12046,028.4,045.4,0.254,759.2,01.16,0.508
2016-05-18 03:27:00,1773E-3,5C000400,-0724,0834,12240,028.4,045.4,0.254,759.2,01.16,0.508
2016-05-18 03:28:00,1992E-3,5C000400,-0724,0833,12091,028.4,045.4,0.255,759.1,01.16,0.508
2016-05-18 03:29:00,1901E-3,5C000400,-0724,0833,12224,028.4,045.4,0.254,759.1,01.16,0.508
2016-05-18 03:30:00,1898E-3,5C000400,-0724,0833,12208,028.4,045.4,0.254,759.2,01.16,0.508
2016-05-18 03:31:00,1742E-3,5C000400,-0724,0834,12177,028.4,045.4,0.254,759.1,01.16,0.508
2016-05-18 03:32:00,1827E-3,5C000400,-0724,0833,12133,028.4,045.4,0.254,759.1,01.16,0.508
2016-05-18 03:33:00,1878E-3,5C000400,-0724,0834,12110,028.4,045.4,0.254,759.2,01.16,0.508
2016-05-18 03:34:00,1970E-3,5C000400,-0724,0833,12199,028.4,045.4,0.254,759.2,01.16,0.508
2016-05-18 03:35:00,1868E-3,5C000400,-0724,0833,12221,028.5,045.4,0.254,759.1,01.16,0.508
2016-05-18 03:36:00,1767E-3,5C000400,-0724,0833,12296,028.5,045.4,0.254,759.2,01.16,0.508
2016-05-18 03:37:00,1869E-3,5C000400,-0724,0834,12155,028.4,045.4,0.254,759.2,01.16,0.508
2016-05-18 03:38:00,1947E-3,5C000400,-0724,0834,12157,028.5,045.5,0.254,759.3,01.16,0.508
2016-05-18 03:39:00,1885E-3,5C000400,-0724,0833,12230,028.5,045.5,0.254,759.3,01.16,0.508
2016-05-18 03:40:00,1836E-3,5C000400,-0724,0834,12164,028.5,045.4,0.254,759.2,01.16,0.508
2016-05-18 03:41:00,1932E-3,5C000400,-0724,0834,12133,028.6,045.4,0.254,759.3,01.16,0.508
2016-05-18 03:42:00,1978E-3,5C000400,-0724,0834,12229,028.5,045.4,0.254,759.3,01.16,0.508
2016-05-18 03:43:00,1854E-3,5C000400,-0724,0834,12164,028.5,045.4,0.254,759.3,01.16,0.508
2016-05-18 03:44:00,1860E-3,5C000400,-0724,0833,12213,028.5,045.4,0.254,759.3,01.16,0.508
2016-05-18 03:45:00,1809E-3,5C000400,-0724,0833,12144,028.5,045.4,0.254,759.4,01.16,0.508
2016-05-18 03:46:00,1645E-3,5C000400,-0724,0834,12165,028.5,045.5,0.254,759.3,01.16,0.508
2016-05-18 03:47:00,1843E-3,5C000400,-0724,0834,12150,028.6,045.4,0.254,759.4,01.16,0.508
2016-05-18 03:48:00,1812E-3,5C000400,-0724,0834,12033,028.6,045.4,0.254,759.5,01.16,0.508
2016-05-18 03:49:00,1890E-3,5C000400,-0724,0834,12062,028.5,045.5,0.254,759.4,01.16,0.508
2016-05-18 03:50:00,1809E-3,5C000400,-0724,0833,12146,028.6,045.4,0.254,759.4,01.16,0.508
2016-05-18 03:51:00,1895E-3,5C000400,-0724,0834,12147,028.6,045.4,0.254,759.4,01.16,0.508
2016-05-18 03:52:00,1867E-3,5C000400,-0724,0834,12056,028.6,045.4,0.254,759.4,01.16,0.508
2016-05-18 03:53:00,1802E-3,5C000400,-0724,0833,12123,028.6,045.5,0.254,759.3,01.16,0.508
2016-05-18 03:54:00,1829E-3,5C000400,-0724,0834,12140,028.6,045.5,0.254,759.4,01.16,0.508
2016-05-18 03:55:00,1942E-3,5C000400,-0724,0833,12243,028.6,045.5,0.254,759.4,01.16,0.508
2016-05-18 03:56:00,1833E-3,5C000400,-0724,0833,12211,028.6,045.4,0.254,759.4,01.16,0.508
2016-05-18 03:57:00,1806E-3,5C000400,-0724,0834,12132,028.6,045.5,0.254,759.4,01.16,0.508
2016-05-18 03:58:00,1842E-3,5C000400,-0724,0834,12065,028.6,045.5,0.254,759.5,01.16,0.508
2016-05-18 03:59:00,1837E-3,5C000400,-0724,0834,12167,028.7,045.5,0.254,759.4,01.16,0.508
2016-05-18 04:00:00,1704E-3,5C000400,-0724,0834,12163,028.7,045.4,0.254,759.5,01.16,0.508
2016-05-18 04:01:00,1889E-3,5C000400,-0724,0834,12080,028.7,045.4,0.254,759.5,01.16,0.508
2016-05-18 04:02:00,1798E-3,5C000400,-0724,0834,12171,028.7,045.4,0.254,759.5,01.16,0.508
2016-05-18 04:03:00,1922E-3,5C000400,-0724,0834,12180,028.7,045.4,0.254,759.5,01.16,0.508
2016-05-18 04:04:00,1885E-3,5C000400,-0724,0834,12266,028.7,045.4,0.254,759.5,01.16,0.508
2016-05-18 04:05:00,1744E-3,5C000400,-0724,0834,12172,028.7,045.5,0.254,759.5,01.16,0.508
2016-05-18 04:06:00,1918E-3,5C000400,-0724,0834,12278,028.7,045.4,0.253,759.5,01.16,0.508
2016-05-18 04:07:00,1752E-3,5C000400,-0724,0834,12101,028.7,045.5,0.254,759.5,01.16,0.508
2016-05-18 04:08:00,1782E-3,5C000400,-0724,0834,12120,028.7,045.5,0.254,759.5,01.16,0.508
2016-05-18 04:09:00,1792E-3,5C000400,-0724,0834,12149,028.7,045.5,0.254,759.5,01.16,0.508
2016-05-18 04:10:00,1792E-3,5C000400,-0724,0833,12278,028.7,045.4,0.254,759.5,01.16,0.508
2016-05-18 04:11:00,1834E-3,5C000400,-0724,0833,12182,028.8,045.4,0.254,759.6,01.16,0.508
2016-05-18 04:12:00,1883E-3,5C000400,-0724,0834,12122,028.8,045.5,0.254,759.6,01.16,0.508
2016-05-18 04:13:00,1932E-3,5C000400,-0724,0833,12113,028.8,045.5,0.253,759.6,01.16,0.508
2016-05-18 04:14:00,1807E-3,5C000400,-0724,0834,12110,028.8,045.5,0.254,759.6,01.16,0.508
2016-05-18 04:15:00,1968E-3,5C000400,-0724,0834,12186,028.8,045.5,0.254,759.6,01.16,0.508
2016-05-18 04:16:00,1805E-3,5C000400,-0724,0834,12112,028.7,045.4,0.254,759.5,01.16,0.508
2016-05-18 04:17:00,1901E-3,5C000400,-0724,0834,12133,028.7,045.5,0.254,759.5,01.16,0.508
2016-05-18 04:18:00,1970E-3,5C000400,-0724,0834,12221,028.8,045.5,0.254,759.6,01.16,0.508
2016-05-18 04:19:00,1798E-3,5C000400,-0724,0834,12111,028.8,045.4,0.254,759.5,01.16,0.508
2016-05-18 04:20:00,1840E-3,5C000400,-0724,0833,12115,028.8,045.5,0.253,759.5,01.16,0.508